Big Piney River (Missouri), Fort Leonard Wood (06930060)

StateMissouriLatestLow (505 cfs)
RiverBig Piney RiverRatingObservedEstimated
Updated2020-08-11 19:00 (1 hour ago)Flood - The river is flooding. Obstacles can be treacherous or deadly. The river should be avoided at this stage for casual trips and definitely for the inexperienced. Trips should be attempted only with protective gear and equipment.Flood(none)3031
Discharge505 cfs (median: 201 cfs)High - The river is high and potentially dangerous, especially for the young and / or inexperienced. Normal stream obstacles are sometimes difficult to navigate. Extended distances can be attempted, but canoe travel may not be advisable.High(none)1449
Height2.71 feetGood - Conditions are ideal for a canoe or kayak. Boats typically will drag on fewer than one-quarter of riffles, if at all, and portages are unnecessary or rare. Normal float lengths can be attempted without a problem.Good(none)638
TrendRising (rising over 24 hours)Low - River is low but can still be floated. Some riffles are okay but most come with significant dragging and might need a portage. Float lengths should be reduced to accommodate low flow, dragging, and portages.Low(none)385
USGSExternal icon USGS Site (External icon Google Maps)Poor - River is too low to float comfortably. Most or all riffles will drag or must be portaged and some obstacles (such as slick shelf rock) cause undue problems. Avoid the river at this stage for casual paddling trips.Poor(none)204

Trending Data

Plot Image

Trips for Big Piney River (Missouri), Fort Leonard Wood (06930060)

DateStartEndDistanceConditionDischargeHeightFishingDetails

A total of 0 rows are displayed.

Condition Descriptions

Fishing Conditions

Fish Species

Notes

Classic Trip List

The classic River Trips application is still available for use. It is updated with the new system using a data retrofit. It is no longer maintained. The original River Trips application is no longer updated (as of 1 Dec 2016) but can be checked for errors or for the condition of the data before it was converted to the new system.

Gauge Data Table

ObservationHeightDischargeMaximum
Discharge
Minimum
Discharge
Mean
Discharge
P05P10P20P25P50
(Median)
P75P80P90P95
2020-08-11 19:00 2.71 505 4870 (2015) 127 (2007) 672 127 131 140 146 201 310 314 4360 4870
2020-08-11 18:00 2.69 497 4870 (2015) 127 (2007) 672 127 131 140 146 201 310 314 4360 4870
2020-08-11 17:00 2.72 509 4870 (2015) 127 (2007) 672 127 131 140 146 201 310 314 4360 4870
2020-08-11 16:00 2.71 505 4870 (2015) 127 (2007) 672 127 131 140 146 201 310 314 4360 4870
2020-08-11 15:00 2.70 501 4870 (2015) 127 (2007) 672 127 131 140 146 201 310 314 4360 4870
2020-08-11 14:00 2.71 505 4870 (2015) 127 (2007) 672 127 131 140 146 201 310 314 4360 4870
2020-08-11 13:00 2.69 497 4870 (2015) 127 (2007) 672 127 131 140 146 201 310 314 4360 4870
2020-08-11 12:00 2.69 497 4870 (2015) 127 (2007) 672 127 131 140 146 201 310 314 4360 4870
2020-08-11 11:00 2.69 497 4870 (2015) 127 (2007) 672 127 131 140 146 201 310 314 4360 4870
2020-08-11 10:00 2.65 481 4870 (2015) 127 (2007) 672 127 131 140 146 201 310 314 4360 4870
2020-08-11 09:00 2.61 466 4870 (2015) 127 (2007) 672 127 131 140 146 201 310 314 4360 4870
2020-08-11 08:00 2.59 458 4870 (2015) 127 (2007) 672 127 131 140 146 201 310 314 4360 4870
2020-08-11 07:00 2.56 447 4870 (2015) 127 (2007) 672 127 131 140 146 201 310 314 4360 4870
2020-08-11 06:00 2.55 443 4870 (2015) 127 (2007) 672 127 131 140 146 201 310 314 4360 4870
2020-08-11 05:00 2.51 429 4870 (2015) 127 (2007) 672 127 131 140 146 201 310 314 4360 4870
2020-08-11 04:00 2.47 414 4870 (2015) 127 (2007) 672 127 131 140 146 201 310 314 4360 4870
2020-08-11 03:00 2.45 406 4870 (2015) 127 (2007) 672 127 131 140 146 201 310 314 4360 4870
2020-08-11 02:00 2.47 414 4870 (2015) 127 (2007) 672 127 131 140 146 201 310 314 4360 4870
2020-08-11 01:00 2.45 406 4870 (2015) 127 (2007) 672 127 131 140 146 201 310 314 4360 4870
2020-08-11 00:00 2.44 402 4870 (2015) 127 (2007) 672 127 131 140 146 201 310 314 4360 4870
2020-08-10 23:00 2.45 406 5610 (2013) 128 (2001) 590 128 129 142 146 197 317 340 2130 5450
2020-08-10 22:00 2.42 395 5610 (2013) 128 (2001) 590 128 129 142 146 197 317 340 2130 5450
2020-08-10 21:00 2.38 381 5610 (2013) 128 (2001) 590 128 129 142 146 197 317 340 2130 5450
2020-08-10 20:00 2.38 381 5610 (2013) 128 (2001) 590 128 129 142 146 197 317 340 2130 5450
2020-08-10 19:00 2.36 374 5610 (2013) 128 (2001) 590 128 129 142 146 197 317 340 2130 5450
2020-08-10 18:00 2.37 377 5610 (2013) 128 (2001) 590 128 129 142 146 197 317 340 2130 5450
2020-08-10 17:00 2.38 381 5610 (2013) 128 (2001) 590 128 129 142 146 197 317 340 2130 5450
2020-08-10 16:00 2.36 374 5610 (2013) 128 (2001) 590 128 129 142 146 197 317 340 2130 5450
2020-08-10 15:00 2.37 377 5610 (2013) 128 (2001) 590 128 129 142 146 197 317 340 2130 5450
2020-08-10 14:00 2.38 381 5610 (2013) 128 (2001) 590 128 129 142 146 197 317 340 2130 5450
2020-08-10 13:00 2.38 381 5610 (2013) 128 (2001) 590 128 129 142 146 197 317 340 2130 5450
2020-08-10 12:00 2.37 377 5610 (2013) 128 (2001) 590 128 129 142 146 197 317 340 2130 5450
2020-08-10 11:00 2.36 374 5610 (2013) 128 (2001) 590 128 129 142 146 197 317 340 2130 5450
2020-08-10 10:00 2.39 384 5610 (2013) 128 (2001) 590 128 129 142 146 197 317 340 2130 5450
2020-08-10 09:00 2.37 377 5610 (2013) 128 (2001) 590 128 129 142 146 197 317 340 2130 5450
2020-08-10 08:00 2.37 377 5610 (2013) 128 (2001) 590 128 129 142 146 197 317 340 2130 5450
2020-08-10 07:00 2.37 377 5610 (2013) 128 (2001) 590 128 129 142 146 197 317 340 2130 5450
2020-08-10 06:00 2.38 381 5610 (2013) 128 (2001) 590 128 129 142 146 197 317 340 2130 5450
2020-08-10 05:00 2.39 406 5610 (2013) 128 (2001) 590 128 129 142 146 197 317 340 2130 5450
2020-08-10 04:00 2.39 406 5610 (2013) 128 (2001) 590 128 129 142 146 197 317 340 2130 5450
2020-08-10 03:00 2.39 406 5610 (2013) 128 (2001) 590 128 129 142 146 197 317 340 2130 5450
2020-08-10 02:00 2.40 410 5610 (2013) 128 (2001) 590 128 129 142 146 197 317 340 2130 5450
2020-08-10 01:00 2.39 406 5610 (2013) 128 (2001) 590 128 129 142 146 197 317 340 2130 5450
2020-08-10 00:00 2.39 406 5610 (2013) 128 (2001) 590 128 129 142 146 197 317 340 2130 5450
2020-08-09 23:00 2.37 399 14500 (2013) 124 (2001) 936 124 129 142 147 194 327 337 434 13800
2020-08-09 22:00 2.36 395 14500 (2013) 124 (2001) 936 124 129 142 147 194 327 337 434 13800
2020-08-09 21:00 2.40 410 14500 (2013) 124 (2001) 936 124 129 142 147 194 327 337 434 13800
2020-08-09 20:00 2.40 410 14500 (2013) 124 (2001) 936 124 129 142 147 194 327 337 434 13800
2020-08-09 19:00 2.39 406 14500 (2013) 124 (2001) 936 124 129 142 147 194 327 337 434 13800
2020-08-09 18:00 2.39 406 14500 (2013) 124 (2001) 936 124 129 142 147 194 327 337 434 13800
2020-08-09 17:00 2.38 402 14500 (2013) 124 (2001) 936 124 129 142 147 194 327 337 434 13800
2020-08-09 16:00 2.38 402 14500 (2013) 124 (2001) 936 124 129 142 147 194 327 337 434 13800
2020-08-09 15:00 2.39 406 14500 (2013) 124 (2001) 936 124 129 142 147 194 327 337 434 13800
2020-08-09 14:00 2.41 414 14500 (2013) 124 (2001) 936 124 129 142 147 194 327 337 434 13800
2020-08-09 13:00 2.42 417 14500 (2013) 124 (2001) 936 124 129 142 147 194 327 337 434 13800
2020-08-09 12:00 2.41 414 14500 (2013) 124 (2001) 936 124 129 142 147 194 327 337 434 13800
2020-08-09 11:00 2.42 417 14500 (2013) 124 (2001) 936 124 129 142 147 194 327 337 434 13800
2020-08-09 10:00 2.40 410 14500 (2013) 124 (2001) 936 124 129 142 147 194 327 337 434 13800
2020-08-09 09:00 2.40 410 14500 (2013) 124 (2001) 936 124 129 142 147 194 327 337 434 13800
2020-08-09 08:00 2.42 417 14500 (2013) 124 (2001) 936 124 129 142 147 194 327 337 434 13800
2020-08-09 07:00 2.42 417 14500 (2013) 124 (2001) 936 124 129 142 147 194 327 337 434 13800
2020-08-09 06:00 2.43 421 14500 (2013) 124 (2001) 936 124 129 142 147 194 327 337 434 13800
2020-08-09 05:00 2.40 410 14500 (2013) 124 (2001) 936 124 129 142 147 194 327 337 434 13800
2020-08-09 04:00 2.44 425 14500 (2013) 124 (2001) 936 124 129 142 147 194 327 337 434 13800
2020-08-09 03:00 2.43 421 14500 (2013) 124 (2001) 936 124 129 142 147 194 327 337 434 13800
2020-08-09 02:00 2.45 429 14500 (2013) 124 (2001) 936 124 129 142 147 194 327 337 434 13800
2020-08-09 01:00 2.44 425 14500 (2013) 124 (2001) 936 124 129 142 147 194 327 337 434 13800
2020-08-09 00:00 2.46 433 14500 (2013) 124 (2001) 936 124 129 142 147 194 327 337 434 13800
2020-08-08 23:00 2.46 433 19000 (2013) 114 (2001) 1170 115 132 138 146 196 338 392 511 18100
2020-08-08 22:00 2.47 437 19000 (2013) 114 (2001) 1170 115 132 138 146 196 338 392 511 18100
2020-08-08 21:00 2.48 440 19000 (2013) 114 (2001) 1170 115 132 138 146 196 338 392 511 18100
2020-08-08 20:00 2.47 437 19000 (2013) 114 (2001) 1170 115 132 138 146 196 338 392 511 18100
2020-08-08 19:00 2.46 433 19000 (2013) 114 (2001) 1170 115 132 138 146 196 338 392 511 18100
2020-08-08 18:00 2.47 437 19000 (2013) 114 (2001) 1170 115 132 138 146 196 338 392 511 18100
2020-08-08 17:00 2.46 433 19000 (2013) 114 (2001) 1170 115 132 138 146 196 338 392 511 18100
2020-08-08 16:00 2.46 433 19000 (2013) 114 (2001) 1170 115 132 138 146 196 338 392 511 18100
2020-08-08 15:00 2.46 433 19000 (2013) 114 (2001) 1170 115 132 138 146 196 338 392 511 18100
2020-08-08 14:00 2.46 433 19000 (2013) 114 (2001) 1170 115 132 138 146 196 338 392 511 18100
2020-08-08 13:00 2.46 433 19000 (2013) 114 (2001) 1170 115 132 138 146 196 338 392 511 18100
2020-08-08 12:00 2.46 433 19000 (2013) 114 (2001) 1170 115 132 138 146 196 338 392 511 18100
2020-08-08 11:00 2.45 429 19000 (2013) 114 (2001) 1170 115 132 138 146 196 338 392 511 18100
2020-08-08 10:00 2.45 429 19000 (2013) 114 (2001) 1170 115 132 138 146 196 338 392 511 18100
2020-08-08 09:00 2.44 425 19000 (2013) 114 (2001) 1170 115 132 138 146 196 338 392 511 18100
2020-08-08 08:00 2.43 421 19000 (2013) 114 (2001) 1170 115 132 138 146 196 338 392 511 18100
2020-08-08 07:00 2.42 417 19000 (2013) 114 (2001) 1170 115 132 138 146 196 338 392 511 18100
2020-08-08 06:00 2.43 421 19000 (2013) 114 (2001) 1170 115 132 138 146 196 338 392 511 18100
2020-08-08 05:00 2.42 417 19000 (2013) 114 (2001) 1170 115 132 138 146 196 338 392 511 18100
2020-08-08 04:00 2.43 421 19000 (2013) 114 (2001) 1170 115 132 138 146 196 338 392 511 18100
2020-08-08 03:00 2.44 425 19000 (2013) 114 (2001) 1170 115 132 138 146 196 338 392 511 18100
2020-08-08 02:00 2.42 417 19000 (2013) 114 (2001) 1170 115 132 138 146 196 338 392 511 18100
2020-08-08 01:00 2.45 429 19000 (2013) 114 (2001) 1170 115 132 138 146 196 338 392 511 18100
2020-08-08 00:00 2.44 425 19000 (2013) 114 (2001) 1170 115 132 138 146 196 338 392 511 18100
2020-08-07 23:00 2.44 425 27000 (2013) 110 (2001) 1590 111 135 145 156 202 335 405 781 25700
2020-08-07 22:00 2.45 429 27000 (2013) 110 (2001) 1590 111 135 145 156 202 335 405 781 25700
2020-08-07 21:00 2.45 429 27000 (2013) 110 (2001) 1590 111 135 145 156 202 335 405 781 25700
2020-08-07 20:00 2.45 429 27000 (2013) 110 (2001) 1590 111 135 145 156 202 335 405 781 25700
2020-08-07 19:00 2.47 437 27000 (2013) 110 (2001) 1590 111 135 145 156 202 335 405 781 25700
2020-08-07 18:00 2.46 433 27000 (2013) 110 (2001) 1590 111 135 145 156 202 335 405 781 25700
2020-08-07 17:00 2.47 437 27000 (2013) 110 (2001) 1590 111 135 145 156 202 335 405 781 25700
2020-08-07 16:00 2.47 437 27000 (2013) 110 (2001) 1590 111 135 145 156 202 335 405 781 25700
2020-08-07 15:00 2.47 437 27000 (2013) 110 (2001) 1590 111 135 145 156 202 335 405 781 25700
2020-08-07 14:00 2.46 433 27000 (2013) 110 (2001) 1590 111 135 145 156 202 335 405 781 25700
2020-08-07 13:00 2.47 437 27000 (2013) 110 (2001) 1590 111 135 145 156 202 335 405 781 25700
2020-08-07 12:00 2.44 425 27000 (2013) 110 (2001) 1590 111 135 145 156 202 335 405 781 25700
2020-08-07 11:00 2.45 429 27000 (2013) 110 (2001) 1590 111 135 145 156 202 335 405 781 25700
2020-08-07 10:00 2.46 433 27000 (2013) 110 (2001) 1590 111 135 145 156 202 335 405 781 25700
2020-08-07 09:00 2.47 437 27000 (2013) 110 (2001) 1590 111 135 145 156 202 335 405 781 25700
2020-08-07 08:00 2.45 429 27000 (2013) 110 (2001) 1590 111 135 145 156 202 335 405 781 25700
2020-08-07 07:00 2.48 440 27000 (2013) 110 (2001) 1590 111 135 145 156 202 335 405 781 25700
2020-08-07 06:00 2.49 444 27000 (2013) 110 (2001) 1590 111 135 145 156 202 335 405 781 25700
2020-08-07 05:00 2.48 440 27000 (2013) 110 (2001) 1590 111 135 145 156 202 335 405 781 25700
2020-08-07 04:00 2.50 448 27000 (2013) 110 (2001) 1590 111 135 145 156 202 335 405 781 25700
2020-08-07 03:00 2.49 444 27000 (2013) 110 (2001) 1590 111 135 145 156 202 335 405 781 25700
2020-08-07 02:00 2.49 444 27000 (2013) 110 (2001) 1590 111 135 145 156 202 335 405 781 25700
2020-08-07 01:00 2.51 452 27000 (2013) 110 (2001) 1590 111 135 145 156 202 335 405 781 25700
2020-08-07 00:00 2.51 452 27000 (2013) 110 (2001) 1590 111 135 145 156 202 335 405 781 25700
2020-08-06 23:00 2.50 448 18900 (2013) 112 (2001) 1170 113 139 144 148 206 313 404 500 18000
2020-08-06 22:00 2.51 452 18900 (2013) 112 (2001) 1170 113 139 144 148 206 313 404 500 18000
2020-08-06 21:00 2.52 456 18900 (2013) 112 (2001) 1170 113 139 144 148 206 313 404 500 18000
2020-08-06 20:00 2.51 452 18900 (2013) 112 (2001) 1170 113 139 144 148 206 313 404 500 18000
2020-08-06 19:00 2.52 456 18900 (2013) 112 (2001) 1170 113 139 144 148 206 313 404 500 18000
2020-08-06 18:00 2.52 456 18900 (2013) 112 (2001) 1170 113 139 144 148 206 313 404 500 18000
2020-08-06 17:00 2.53 460 18900 (2013) 112 (2001) 1170 113 139 144 148 206 313 404 500 18000
2020-08-06 16:00 2.52 456 18900 (2013) 112 (2001) 1170 113 139 144 148 206 313 404 500 18000
2020-08-06 15:00 2.54 463 18900 (2013) 112 (2001) 1170 113 139 144 148 206 313 404 500 18000
2020-08-06 14:00 2.56 471 18900 (2013) 112 (2001) 1170 113 139 144 148 206 313 404 500 18000
2020-08-06 13:00 2.54 463 18900 (2013) 112 (2001) 1170 113 139 144 148 206 313 404 500 18000
2020-08-06 12:00 2.56 471 18900 (2013) 112 (2001) 1170 113 139 144 148 206 313 404 500 18000
2020-08-06 11:00 2.56 471 18900 (2013) 112 (2001) 1170 113 139 144 148 206 313 404 500 18000
2020-08-06 10:00 2.56 471 18900 (2013) 112 (2001) 1170 113 139 144 148 206 313 404 500 18000
2020-08-06 09:00 2.56 471 18900 (2013) 112 (2001) 1170 113 139 144 148 206 313 404 500 18000
2020-08-06 08:00 2.56 471 18900 (2013) 112 (2001) 1170 113 139 144 148 206 313 404 500 18000
2020-08-06 07:00 2.57 475 18900 (2013) 112 (2001) 1170 113 139 144 148 206 313 404 500 18000
2020-08-06 06:00 2.58 479 18900 (2013) 112 (2001) 1170 113 139 144 148 206 313 404 500 18000
2020-08-06 05:00 2.58 479 18900 (2013) 112 (2001) 1170 113 139 144 148 206 313 404 500 18000
2020-08-06 04:00 2.59 482 18900 (2013) 112 (2001) 1170 113 139 144 148 206 313 404 500 18000
2020-08-06 03:00 2.59 482 18900 (2013) 112 (2001) 1170 113 139 144 148 206 313 404 500 18000
2020-08-06 02:00 2.61 490 18900 (2013) 112 (2001) 1170 113 139 144 148 206 313 404 500 18000
2020-08-06 01:00 2.61 490 18900 (2013) 112 (2001) 1170 113 139 144 148 206 313 404 500 18000
2020-08-06 00:00 2.61 490 18900 (2013) 112 (2001) 1170 113 139 144 148 206 313 404 500 18000
2020-08-05 23:00 2.64 502 1240 (2013) 111 (2001) 278 112 138 146 148 213 295 319 500 1200
2020-08-05 22:00 2.63 498 1240 (2013) 111 (2001) 278 112 138 146 148 213 295 319 500 1200
2020-08-05 21:00 2.65 506 1240 (2013) 111 (2001) 278 112 138 146 148 213 295 319 500 1200
2020-08-05 20:00 2.65 506 1240 (2013) 111 (2001) 278 112 138 146 148 213 295 319 500 1200
2020-08-05 19:00 2.65 506 1240 (2013) 111 (2001) 278 112 138 146 148 213 295 319 500 1200
2020-08-05 18:00 2.65 506 1240 (2013) 111 (2001) 278 112 138 146 148 213 295 319 500 1200
2020-08-05 17:00 2.68 518 1240 (2013) 111 (2001) 278 112 138 146 148 213 295 319 500 1200
2020-08-05 16:00 2.68 518 1240 (2013) 111 (2001) 278 112 138 146 148 213 295 319 500 1200
2020-08-05 15:00 2.68 518 1240 (2013) 111 (2001) 278 112 138 146 148 213 295 319 500 1200
2020-08-05 14:00 2.71 531 1240 (2013) 111 (2001) 278 112 138 146 148 213 295 319 500 1200
2020-08-05 13:00 2.72 535 1240 (2013) 111 (2001) 278 112 138 146 148 213 295 319 500 1200
2020-08-05 12:00 2.72 535 1240 (2013) 111 (2001) 278 112 138 146 148 213 295 319 500 1200
2020-08-05 11:00 2.73 539 1240 (2013) 111 (2001) 278 112 138 146 148 213 295 319 500 1200
2020-08-05 10:00 2.75 548 1240 (2013) 111 (2001) 278 112 138 146 148 213 295 319 500 1200
2020-08-05 09:00 2.75 548 1240 (2013) 111 (2001) 278 112 138 146 148 213 295 319 500 1200
2020-08-05 08:00 2.78 560 1240 (2013) 111 (2001) 278 112 138 146 148 213 295 319 500 1200
2020-08-05 07:00 2.78 560 1240 (2013) 111 (2001) 278 112 138 146 148 213 295 319 500 1200
2020-08-05 06:00 2.79 565 1240 (2013) 111 (2001) 278 112 138 146 148 213 295 319 500 1200
2020-08-05 05:00 2.78 560 1240 (2013) 111 (2001) 278 112 138 146 148 213 295 319 500 1200
2020-08-05 04:00 2.83 582 1240 (2013) 111 (2001) 278 112 138 146 148 213 295 319 500 1200
2020-08-05 03:00 2.82 578 1240 (2013) 111 (2001) 278 112 138 146 148 213 295 319 500 1200
2020-08-05 02:00 2.84 587 1240 (2013) 111 (2001) 278 112 138 146 148 213 295 319 500 1200
2020-08-05 01:00 2.86 596 1240 (2013) 111 (2001) 278 112 138 146 148 213 295 319 500 1200
2020-08-05 00:00 2.88 605 1240 (2013) 111 (2001) 278 112 138 146 148 213 295 319 500 1200
2020-08-04 23:00 2.89 610 533 (2013) 115 (2001) 242 116 129 142 151 207 323 340 449 529
2020-08-04 22:00 2.88 605 533 (2013) 115 (2001) 242 116 129 142 151 207 323 340 449 529
2020-08-04 21:00 2.91 619 533 (2013) 115 (2001) 242 116 129 142 151 207 323 340 449 529
2020-08-04 20:00 2.90 614 533 (2013) 115 (2001) 242 116 129 142 151 207 323 340 449 529
2020-08-04 19:00 2.88 605 533 (2013) 115 (2001) 242 116 129 142 151 207 323 340 449 529
2020-08-04 18:00 2.86 596 533 (2013) 115 (2001) 242 116 129 142 151 207 323 340 449 529
2020-08-04 17:00 2.83 582 533 (2013) 115 (2001) 242 116 129 142 151 207 323 340 449 529
2020-08-04 16:00 2.76 552 533 (2013) 115 (2001) 242 116 129 142 151 207 323 340 449 529
2020-08-04 15:00 2.69 522 533 (2013) 115 (2001) 242 116 129 142 151 207 323 340 449 529
2020-08-04 14:00 2.66 510 533 (2013) 115 (2001) 242 116 129 142 151 207 323 340 449 529
2020-08-04 13:00 2.63 498 533 (2013) 115 (2001) 242 116 129 142 151 207 323 340 449 529
2020-08-04 12:00 2.60 486 533 (2013) 115 (2001) 242 116 129 142 151 207 323 340 449 529
2020-08-04 11:00 2.59 482 533 (2013) 115 (2001) 242 116 129 142 151 207 323 340 449 529
2020-08-04 10:00 2.60 486 533 (2013) 115 (2001) 242 116 129 142 151 207 323 340 449 529
2020-08-04 09:00 2.60 486 533 (2013) 115 (2001) 242 116 129 142 151 207 323 340 449 529
2020-08-04 08:00 2.62 494 533 (2013) 115 (2001) 242 116 129 142 151 207 323 340 449 529
2020-08-04 07:00 2.58 479 533 (2013) 115 (2001) 242 116 129 142 151 207 323 340 449 529
2020-08-04 06:00 2.62 494 533 (2013) 115 (2001) 242 116 129 142 151 207 323 340 449 529
2020-08-04 05:00 2.62 494 533 (2013) 115 (2001) 242 116 129 142 151 207 323 340 449 529
2020-08-04 04:00 2.60 486 533 (2013) 115 (2001) 242 116 129 142 151 207 323 340 449 529
2020-08-04 03:00 2.60 486 533 (2013) 115 (2001) 242 116 129 142 151 207 323 340 449 529
2020-08-04 02:00 2.60 486 533 (2013) 115 (2001) 242 116 129 142 151 207 323 340 449 529
2020-08-04 01:00 2.59 482 533 (2013) 115 (2001) 242 116 129 142 151 207 323 340 449 529
2020-08-04 00:00 2.58 479 533 (2013) 115 (2001) 242 116 129 142 151 207 323 340 449 529
2020-08-03 23:00 2.60 486 765 (2013) 117 (2001) 260 118 131 144 155 212 325 393 486 751
2020-08-03 22:00 2.57 475 765 (2013) 117 (2001) 260 118 131 144 155 212 325 393 486 751
2020-08-03 21:00 2.57 475 765 (2013) 117 (2001) 260 118 131 144 155 212 325 393 486 751
2020-08-03 20:00 2.56 471 765 (2013) 117 (2001) 260 118 131 144 155 212 325 393 486 751
2020-08-03 19:00 2.55 467 765 (2013) 117 (2001) 260 118 131 144 155 212 325 393 486 751
2020-08-03 18:00 2.54 463 765 (2013) 117 (2001) 260 118 131 144 155 212 325 393 486 751
2020-08-03 17:00 2.53 460 765 (2013) 117 (2001) 260 118 131 144 155 212 325 393 486 751
2020-08-03 16:00 2.52 456 765 (2013) 117 (2001) 260 118 131 144 155 212 325 393 486 751
2020-08-03 15:00 2.52 456 765 (2013) 117 (2001) 260 118 131 144 155 212 325 393 486 751
2020-08-03 14:00 2.52 456 765 (2013) 117 (2001) 260 118 131 144 155 212 325 393 486 751
2020-08-03 13:00 2.51 452 765 (2013) 117 (2001) 260 118 131 144 155 212 325 393 486 751
2020-08-03 12:00 2.51 452 765 (2013) 117 (2001) 260 118 131 144 155 212 325 393 486 751
2020-08-03 11:00 2.51 452 765 (2013) 117 (2001) 260 118 131 144 155 212 325 393 486 751
2020-08-03 10:00 2.50 448 765 (2013) 117 (2001) 260 118 131 144 155 212 325 393 486 751
2020-08-03 09:00 2.48 440 765 (2013) 117 (2001) 260 118 131 144 155 212 325 393 486 751
2020-08-03 08:00 2.53 460 765 (2013) 117 (2001) 260 118 131 144 155 212 325 393 486 751
2020-08-03 07:00 2.51 452 765 (2013) 117 (2001) 260 118 131 144 155 212 325 393 486 751
2020-08-03 06:00 2.52 456 765 (2013) 117 (2001) 260 118 131 144 155 212 325 393 486 751
2020-08-03 05:00 2.53 460 765 (2013) 117 (2001) 260 118 131 144 155 212 325 393 486 751
2020-08-03 04:00 2.55 467 765 (2013) 117 (2001) 260 118 131 144 155 212 325 393 486 751
2020-08-03 03:00 2.55 467 765 (2013) 117 (2001) 260 118 131 144 155 212 325 393 486 751
2020-08-03 02:00 2.56 471 765 (2013) 117 (2001) 260 118 131 144 155 212 325 393 486 751
2020-08-03 01:00 2.56 471 765 (2013) 117 (2001) 260 118 131 144 155 212 325 393 486 751
2020-08-03 00:00 2.53 460 765 (2013) 117 (2001) 260 118 131 144 155 212 325 393 486 751
2020-08-02 23:00 2.50 448 558 (2008) 120 (2001) 255 121 132 146 161 220 339 383 484 555
2020-08-02 22:00 2.48 440 558 (2008) 120 (2001) 255 121 132 146 161 220 339 383 484 555
2020-08-02 21:00 2.49 444 558 (2008) 120 (2001) 255 121 132 146 161 220 339 383 484 555
2020-08-02 20:00 2.47 437 558 (2008) 120 (2001) 255 121 132 146 161 220 339 383 484 555
2020-08-02 19:00 2.49 444 558 (2008) 120 (2001) 255 121 132 146 161 220 339 383 484 555
2020-08-02 18:00 2.52 456 558 (2008) 120 (2001) 255 121 132 146 161 220 339 383 484 555
2020-08-02 17:00 2.52 456 558 (2008) 120 (2001) 255 121 132 146 161 220 339 383 484 555
2020-08-02 16:00 2.51 452 558 (2008) 120 (2001) 255 121 132 146 161 220 339 383 484 555
2020-08-02 15:00 2.50 448 558 (2008) 120 (2001) 255 121 132 146 161 220 339 383 484 555
2020-08-02 14:00 2.49 444 558 (2008) 120 (2001) 255 121 132 146 161 220 339 383 484 555
2020-08-02 13:00 2.50 448 558 (2008) 120 (2001) 255 121 132 146 161 220 339 383 484 555
2020-08-02 12:00 2.52 456 558 (2008) 120 (2001) 255 121 132 146 161 220 339 383 484 555
2020-08-02 11:00 2.52 456 558 (2008) 120 (2001) 255 121 132 146 161 220 339 383 484 555
2020-08-02 10:00 2.50 448 558 (2008) 120 (2001) 255 121 132 146 161 220 339 383 484 555
2020-08-02 09:00 2.51 452 558 (2008) 120 (2001) 255 121 132 146 161 220 339 383 484 555
2020-08-02 08:00 2.53 460 558 (2008) 120 (2001) 255 121 132 146 161 220 339 383 484 555
2020-08-02 07:00 2.55 467 558 (2008) 120 (2001) 255 121 132 146 161 220 339 383 484 555
2020-08-02 06:00 2.55 467 558 (2008) 120 (2001) 255 121 132 146 161 220 339 383 484 555
2020-08-02 05:00 2.57 475 558 (2008) 120 (2001) 255 121 132 146 161 220 339 383 484 555
2020-08-02 04:00 2.57 475 558 (2008) 120 (2001) 255 121 132 146 161 220 339 383 484 555
2020-08-02 03:00 2.58 479 558 (2008) 120 (2001) 255 121 132 146 161 220 339 383 484 555
2020-08-02 02:00 2.59 482 558 (2008) 120 (2001) 255 121 132 146 161 220 339 383 484 555
2020-08-02 01:00 2.62 494 558 (2008) 120 (2001) 255 121 132 146 161 220 339 383 484 555
2020-08-02 00:00 2.63 498 558 (2008) 120 (2001) 255 121 132 146 161 220 339 383 484 555
2020-08-01 23:00 2.61 490 660 (2013) 128 (2001) 266 128 135 148 162 224 354 375 502 652
2020-08-01 22:00 2.63 498 660 (2013) 128 (2001) 266 128 135 148 162 224 354 375 502 652
2020-08-01 21:00 2.60 486 660 (2013) 128 (2001) 266 128 135 148 162 224 354 375 502 652
2020-08-01 20:00 2.64 502 660 (2013) 128 (2001) 266 128 135 148 162 224 354 375 502 652
2020-08-01 19:00 2.62 494 660 (2013) 128 (2001) 266 128 135 148 162 224 354 375 502 652
2020-08-01 18:00 2.64 502 660 (2013) 128 (2001) 266 128 135 148 162 224 354 375 502 652
2020-08-01 17:00 2.64 502 660 (2013) 128 (2001) 266 128 135 148 162 224 354 375 502 652
2020-08-01 16:00 2.65 506 660 (2013) 128 (2001) 266 128 135 148 162 224 354 375 502 652
2020-08-01 15:00 2.65 506 660 (2013) 128 (2001) 266 128 135 148 162 224 354 375 502 652
2020-08-01 14:00 2.64 502 660 (2013) 128 (2001) 266 128 135 148 162 224 354 375 502 652
2020-08-01 13:00 2.63 498 660 (2013) 128 (2001) 266 128 135 148 162 224 354 375 502 652
2020-08-01 12:00 2.62 494 660 (2013) 128 (2001) 266 128 135 148 162 224 354 375 502 652
2020-08-01 11:00 2.64 502 660 (2013) 128 (2001) 266 128 135 148 162 224 354 375 502 652
2020-08-01 10:00 2.64 502 660 (2013) 128 (2001) 266 128 135 148 162 224 354 375 502 652
2020-08-01 09:00 2.62 494 660 (2013) 128 (2001) 266 128 135 148 162 224 354 375 502 652
2020-08-01 08:00 2.59 482 660 (2013) 128 (2001) 266 128 135 148 162 224 354 375 502 652
2020-08-01 07:00 2.59 482 660 (2013) 128 (2001) 266 128 135 148 162 224 354 375 502 652
2020-08-01 06:00 2.54 463 660 (2013) 128 (2001) 266 128 135 148 162 224 354 375 502 652
2020-08-01 05:00 2.54 463 660 (2013) 128 (2001) 266 128 135 148 162 224 354 375 502 652
2020-08-01 04:00 2.50 448 660 (2013) 128 (2001) 266 128 135 148 162 224 354 375 502 652
2020-08-01 03:00 2.48 440 660 (2013) 128 (2001) 266 128 135 148 162 224 354 375 502 652
2020-08-01 02:00 2.50 448 660 (2013) 128 (2001) 266 128 135 148 162 224 354 375 502 652
2020-08-01 01:00 2.48 440 660 (2013) 128 (2001) 266 128 135 148 162 224 354 375 502 652
2020-08-01 00:00 2.48 440 660 (2013) 128 (2001) 266 128 135 148 162 224 354 375 502 652
2020-07-31 23:00 2.47 437 492 (2015) 131 (2001) 236 131 135 150 163 225 257 271 406 488
2020-07-31 22:00 2.49 444 492 (2015) 131 (2001) 236 131 135 150 163 225 257 271 406 488
2020-07-31 21:00 2.50 448 492 (2015) 131 (2001) 236 131 135 150 163 225 257 271 406 488
2020-07-31 20:00 2.50 448 492 (2015) 131 (2001) 236 131 135 150 163 225 257 271 406 488
2020-07-31 19:00 2.50 448 492 (2015) 131 (2001) 236 131 135 150 163 225 257 271 406 488
2020-07-31 18:00 2.50 448 492 (2015) 131 (2001) 236 131 135 150 163 225 257 271 406 488
2020-07-31 17:00 2.51 452 492 (2015) 131 (2001) 236 131 135 150 163 225 257 271 406 488
2020-07-31 16:00 2.51 452 492 (2015) 131 (2001) 236 131 135 150 163 225 257 271 406 488
2020-07-31 15:00 2.51 452 492 (2015) 131 (2001) 236 131 135 150 163 225 257 271 406 488
2020-07-31 14:00 2.50 448 492 (2015) 131 (2001) 236 131 135 150 163 225 257 271 406 488
2020-07-31 13:00 2.53 460 492 (2015) 131 (2001) 236 131 135 150 163 225 257 271 406 488
2020-07-31 12:00 2.55 467 492 (2015) 131 (2001) 236 131 135 150 163 225 257 271 406 488
2020-07-31 11:00 2.58 479 492 (2015) 131 (2001) 236 131 135 150 163 225 257 271 406 488
2020-07-31 10:00 2.50 448 492 (2015) 131 (2001) 236 131 135 150 163 225 257 271 406 488
2020-07-31 09:00 2.46 433 492 (2015) 131 (2001) 236 131 135 150 163 225 257 271 406 488
2020-07-31 08:00 2.40 410 492 (2015) 131 (2001) 236 131 135 150 163 225 257 271 406 488
2020-07-31 07:00 2.40 410 492 (2015) 131 (2001) 236 131 135 150 163 225 257 271 406 488
2020-07-31 06:00 2.40 410 492 (2015) 131 (2001) 236 131 135 150 163 225 257 271 406 488
2020-07-31 05:00 2.40 410 492 (2015) 131 (2001) 236 131 135 150 163 225 257 271 406 488
2020-07-31 04:00 2.41 414 492 (2015) 131 (2001) 236 131 135 150 163 225 257 271 406 488
2020-07-31 03:00 2.41 414 492 (2015) 131 (2001) 236 131 135 150 163 225 257 271 406 488
2020-07-31 02:00 2.41 414 492 (2015) 131 (2001) 236 131 135 150 163 225 257 271 406 488
2020-07-31 01:00 2.40 410 492 (2015) 131 (2001) 236 131 135 150 163 225 257 271 406 488
2020-07-31 00:00 2.39 406 492 (2015) 131 (2001) 236 131 135 150 163 225 257 271 406 488
2020-07-30 23:00 2.41 414 546 (2015) 136 (2005) 244 136 141 151 164 231 259 297 504 545
2020-07-30 22:00 2.43 421 546 (2015) 136 (2005) 244 136 141 151 164 231 259 297 504 545
2020-07-30 21:00 2.42 417 546 (2015) 136 (2005) 244 136 141 151 164 231 259 297 504 545
2020-07-30 20:00 2.41 414 546 (2015) 136 (2005) 244 136 141 151 164 231 259 297 504 545
2020-07-30 19:00 2.43 421 546 (2015) 136 (2005) 244 136 141 151 164 231 259 297 504 545
2020-07-30 18:00 2.45 429 546 (2015) 136 (2005) 244 136 141 151 164 231 259 297 504 545
2020-07-30 17:00 2.45 429 546 (2015) 136 (2005) 244 136 141 151 164 231 259 297 504 545
2020-07-30 16:00 2.47 437 546 (2015) 136 (2005) 244 136 141 151 164 231 259 297 504 545
2020-07-30 15:00 2.47 437 546 (2015) 136 (2005) 244 136 141 151 164 231 259 297 504 545
2020-07-30 14:00 2.45 429 546 (2015) 136 (2005) 244 136 141 151 164 231 259 297 504 545
2020-07-30 13:00 2.47 437 546 (2015) 136 (2005) 244 136 141 151 164 231 259 297 504 545
2020-07-30 12:00 2.45 429 546 (2015) 136 (2005) 244 136 141 151 164 231 259 297 504 545
2020-07-30 11:00 2.47 437 546 (2015) 136 (2005) 244 136 141 151 164 231 259 297 504 545
2020-07-30 10:00 2.46 433 546 (2015) 136 (2005) 244 136 141 151 164 231 259 297 504 545
2020-07-30 09:00 2.48 440 546 (2015) 136 (2005) 244 136 141 151 164 231 259 297 504 545
2020-07-30 08:00 2.50 448 546 (2015) 136 (2005) 244 136 141 151 164 231 259 297 504 545
2020-07-30 07:00 2.48 440 546 (2015) 136 (2005) 244 136 141 151 164 231 259 297 504 545
2020-07-30 06:00 2.49 444 546 (2015) 136 (2005) 244 136 141 151 164 231 259 297 504 545
2020-07-30 05:00 2.48 440 546 (2015) 136 (2005) 244 136 141 151 164 231 259 297 504 545
2020-07-30 04:00 2.47 437 546 (2015) 136 (2005) 244 136 141 151 164 231 259 297 504 545
2020-07-30 03:00 2.45 429 546 (2015) 136 (2005) 244 136 141 151 164 231 259 297 504 545
2020-07-30 02:00 2.49 444 546 (2015) 136 (2005) 244 136 141 151 164 231 259 297 504 545
2020-07-30 01:00 2.46 433 546 (2015) 136 (2005) 244 136 141 151 164 231 259 297 504 545
2020-07-30 00:00 2.45 429 546 (2015) 136 (2005) 244 136 141 151 164 231 259 297 504 545
2020-07-29 23:00 2.42 417 643 (2015) 137 (2005) 250 137 145 156 161 230 266 274 535 638
2020-07-29 22:00 2.44 425 643 (2015) 137 (2005) 250 137 145 156 161 230 266 274 535 638
2020-07-29 21:00 2.44 425 643 (2015) 137 (2005) 250 137 145 156 161 230 266 274 535 638
2020-07-29 20:00 2.45 429 643 (2015) 137 (2005) 250 137 145 156 161 230 266 274 535 638
2020-07-29 19:00 2.45 429 643 (2015) 137 (2005) 250 137 145 156 161 230 266 274 535 638
2020-07-29 18:00 2.45 429 643 (2015) 137 (2005) 250 137 145 156 161 230 266 274 535 638
2020-07-29 17:00 2.45 429 643 (2015) 137 (2005) 250 137 145 156 161 230 266 274 535 638
2020-07-29 16:00 2.47 437 643 (2015) 137 (2005) 250 137 145 156 161 230 266 274 535 638
2020-07-29 15:00 2.48 440 643 (2015) 137 (2005) 250 137 145 156 161 230 266 274 535 638
2020-07-29 14:00 2.46 433 643 (2015) 137 (2005) 250 137 145 156 161 230 266 274 535 638
2020-07-29 13:00 2.47 437 643 (2015) 137 (2005) 250 137 145 156 161 230 266 274 535 638
2020-07-29 12:00 2.50 448 643 (2015) 137 (2005) 250 137 145 156 161 230 266 274 535 638
2020-07-29 11:00 2.49 444 643 (2015) 137 (2005) 250 137 145 156 161 230 266 274 535 638
2020-07-29 10:00 2.50 448 643 (2015) 137 (2005) 250 137 145 156 161 230 266 274 535 638
2020-07-29 09:00 2.52 456 643 (2015) 137 (2005) 250 137 145 156 161 230 266 274 535 638
2020-07-29 08:00 2.50 448 643 (2015) 137 (2005) 250 137 145 156 161 230 266 274 535 638
2020-07-29 07:00 2.50 448 643 (2015) 137 (2005) 250 137 145 156 161 230 266 274 535 638
2020-07-29 06:00 2.51 452 643 (2015) 137 (2005) 250 137 145 156 161 230 266 274 535 638
2020-07-29 05:00 2.50 448 643 (2015) 137 (2005) 250 137 145 156 161 230 266 274 535 638
2020-07-29 04:00 2.46 433 643 (2015) 137 (2005) 250 137 145 156 161 230 266 274 535 638
2020-07-29 03:00 2.47 437 643 (2015) 137 (2005) 250 137 145 156 161 230 266 274 535 638
2020-07-29 02:00 2.49 444 643 (2015) 137 (2005) 250 137 145 156 161 230 266 274 535 638
2020-07-29 01:00 2.46 433 643 (2015) 137 (2005) 250 137 145 156 161 230 266 274 535 638
2020-07-29 00:00 2.45 429 643 (2015) 137 (2005) 250 137 145 156 161 230 266 274 535 638
2020-07-28 23:00 2.42 417 963 (2015) 137 (2012) 255 137 139 151 152 234 262 280 374 934
2020-07-28 22:00 2.41 414 963 (2015) 137 (2012) 255 137 139 151 152 234 262 280 374 934
2020-07-28 21:00 2.39 406 963 (2015) 137 (2012) 255 137 139 151 152 234 262 280 374 934
2020-07-28 20:00 2.39 406 963 (2015) 137 (2012) 255 137 139 151 152 234 262 280 374 934
2020-07-28 19:00 2.40 410 963 (2015) 137 (2012) 255 137 139 151 152 234 262 280 374 934
2020-07-28 18:00 2.40 410 963 (2015) 137 (2012) 255 137 139 151 152 234 262 280 374 934
2020-07-28 17:00 2.37 399 963 (2015) 137 (2012) 255 137 139 151 152 234 262 280 374 934
2020-07-28 16:00 2.37 399 963 (2015) 137 (2012) 255 137 139 151 152 234 262 280 374 934
2020-07-28 15:00 2.35 391 963 (2015) 137 (2012) 255 137 139 151 152 234 262 280 374 934
2020-07-28 14:00 2.37 399 963 (2015) 137 (2012) 255 137 139 151 152 234 262 280 374 934
2020-07-28 13:00 2.37 399 963 (2015) 137 (2012) 255 137 139 151 152 234 262 280 374 934
2020-07-28 12:00 2.36 395 963 (2015) 137 (2012) 255 137 139 151 152 234 262 280 374 934
2020-07-28 11:00 2.37 399 963 (2015) 137 (2012) 255 137 139 151 152 234 262 280 374 934
2020-07-28 10:00 2.39 406 963 (2015) 137 (2012) 255 137 139 151 152 234 262 280 374 934
2020-07-28 09:00 2.38 402 963 (2015) 137 (2012) 255 137 139 151 152 234 262 280 374 934
2020-07-28 08:00 2.40 410 963 (2015) 137 (2012) 255 137 139 151 152 234 262 280 374 934
2020-07-28 07:00 2.41 414 963 (2015) 137 (2012) 255 137 139 151 152 234 262 280 374 934
2020-07-28 06:00 2.39 406 963 (2015) 137 (2012) 255 137 139 151 152 234 262 280 374 934
2020-07-28 05:00 2.39 406 963 (2015) 137 (2012) 255 137 139 151 152 234 262 280 374 934
2020-07-28 04:00 2.41 414 963 (2015) 137 (2012) 255 137 139 151 152 234 262 280 374 934
2020-07-28 03:00 2.38 402 963 (2015) 137 (2012) 255 137 139 151 152 234 262 280 374 934
2020-07-28 02:00 2.39 406 963 (2015) 137 (2012) 255 137 139 151 152 234 262 280 374 934
2020-07-28 01:00 2.38 402 963 (2015) 137 (2012) 255 137 139 151 152 234 262 280 374 934
2020-07-28 00:00 2.39 406 963 (2015) 137 (2012) 255 137 139 151 152 234 262 280 374 934
2020-07-27 23:00 2.40 410 1440 (2015) 129 (2000) 279 129 137 142 153 222 277 295 392 1390
2020-07-27 22:00 2.40 410 1440 (2015) 129 (2000) 279 129 137 142 153 222 277 295 392 1390
2020-07-27 21:00 2.42 417 1440 (2015) 129 (2000) 279 129 137 142 153 222 277 295 392 1390
2020-07-27 20:00 2.43 421 1440 (2015) 129 (2000) 279 129 137 142 153 222 277 295 392 1390
2020-07-27 19:00 2.49 444 1440 (2015) 129 (2000) 279 129 137 142 153 222 277 295 392 1390
2020-07-27 18:00 2.50 448 1440 (2015) 129 (2000) 279 129 137 142 153 222 277 295 392 1390
2020-07-27 17:00 2.36 395 1440 (2015) 129 (2000) 279 129 137 142 153 222 277 295 392 1390
2020-07-27 16:00 2.35 391 1440 (2015) 129 (2000) 279 129 137 142 153 222 277 295 392 1390
2020-07-27 15:00 2.33 384 1440 (2015) 129 (2000) 279 129 137 142 153 222 277 295 392 1390
2020-07-27 14:00 2.37 399 1440 (2015) 129 (2000) 279 129 137 142 153 222 277 295 392 1390
2020-07-27 13:00 2.37 399 1440 (2015) 129 (2000) 279 129 137 142 153 222 277 295 392 1390
2020-07-27 12:00 2.39 406 1440 (2015) 129 (2000) 279 129 137 142 153 222 277 295 392 1390
2020-07-27 11:00 2.39 406 1440 (2015) 129 (2000) 279 129 137 142 153 222 277 295 392 1390
2020-07-27 10:00 2.38 402 1440 (2015) 129 (2000) 279 129 137 142 153 222 277 295 392 1390
2020-07-27 09:00 2.37 399 1440 (2015) 129 (2000) 279 129 137 142 153 222 277 295 392 1390
2020-07-27 08:00 2.36 395 1440 (2015) 129 (2000) 279 129 137 142 153 222 277 295 392 1390
2020-07-27 07:00 2.36 395 1440 (2015) 129 (2000) 279 129 137 142 153 222 277 295 392 1390
2020-07-27 06:00 2.37 399 1440 (2015) 129 (2000) 279 129 137 142 153 222 277 295 392 1390
2020-07-27 05:00 2.38 402 1440 (2015) 129 (2000) 279 129 137 142 153 222 277 295 392 1390
2020-07-27 04:00 2.37 399 1440 (2015) 129 (2000) 279 129 137 142 153 222 277 295 392 1390
2020-07-27 03:00 2.37 399 1440 (2015) 129 (2000) 279 129 137 142 153 222 277 295 392 1390
2020-07-27 02:00 2.37 399 1440 (2015) 129 (2000) 279 129 137 142 153 222 277 295 392 1390
2020-07-27 01:00 2.37 399 1440 (2015) 129 (2000) 279 129 137 142 153 222 277 295 392 1390
2020-07-27 00:00 2.40 410 1440 (2015) 129 (2000) 279 129 137 142 153 222 277 295 392 1390
2020-07-26 23:00 2.38 402 816 (2015) 135 (2000) 257 135 136 141 156 222 275 321 433 797
2020-07-26 22:00 2.38 402 816 (2015) 135 (2000) 257 135 136 141 156 222 275 321 433 797
2020-07-26 21:00 2.39 406 816 (2015) 135 (2000) 257 135 136 141 156 222 275 321 433 797
2020-07-26 20:00 2.40 410 816 (2015) 135 (2000) 257 135 136 141 156 222 275 321 433 797
2020-07-26 19:00 2.39 406 816 (2015) 135 (2000) 257 135 136 141 156 222 275 321 433 797
2020-07-26 18:00 2.36 395 816 (2015) 135 (2000) 257 135 136 141 156 222 275 321 433 797
2020-07-26 17:00 2.40 410 816 (2015) 135 (2000) 257 135 136 141 156 222 275 321 433 797
2020-07-26 16:00 2.39 406 816 (2015) 135 (2000) 257 135 136 141 156 222 275 321 433 797
2020-07-26 15:00 2.36 395 816 (2015) 135 (2000) 257 135 136 141 156 222 275 321 433 797
2020-07-26 14:00 2.38 402 816 (2015) 135 (2000) 257 135 136 141 156 222 275 321 433 797
2020-07-26 13:00 2.35 391 816 (2015) 135 (2000) 257 135 136 141 156 222 275 321 433 797
2020-07-26 12:00 2.38 402 816 (2015) 135 (2000) 257 135 136 141 156 222 275 321 433 797
2020-07-26 11:00 2.38 402 816 (2015) 135 (2000) 257 135 136 141 156 222 275 321 433 797
2020-07-26 10:00 2.38 402 816 (2015) 135 (2000) 257 135 136 141 156 222 275 321 433 797
2020-07-26 09:00 2.36 395 816 (2015) 135 (2000) 257 135 136 141 156 222 275 321 433 797
2020-07-26 08:00 2.37 399 816 (2015) 135 (2000) 257 135 136 141 156 222 275 321 433 797
2020-07-26 07:00 2.39 406 816 (2015) 135 (2000) 257 135 136 141 156 222 275 321 433 797
2020-07-26 06:00 2.39 406 816 (2015) 135 (2000) 257 135 136 141 156 222 275 321 433 797
2020-07-26 05:00 2.37 399 816 (2015) 135 (2000) 257 135 136 141 156 222 275 321 433 797
2020-07-26 04:00 2.36 395 816 (2015) 135 (2000) 257 135 136 141 156 222 275 321 433 797
2020-07-26 03:00 2.39 406 816 (2015) 135 (2000) 257 135 136 141 156 222 275 321 433 797
2020-07-26 02:00 2.39 406 816 (2015) 135 (2000) 257 135 136 141 156 222 275 321 433 797
2020-07-26 01:00 2.36 395 816 (2015) 135 (2000) 257 135 136 141 156 222 275 321 433 797
2020-07-26 00:00 2.40 410 816 (2015) 135 (2000) 257 135 136 141 156 222 275 321 433 797
2020-07-25 23:00 2.39 406 1060 (2015) 128 (2001) 299 128 137 145 160 226 298 373 773 1050
2020-07-25 22:00 2.40 410 1060 (2015) 128 (2001) 299 128 137 145 160 226 298 373 773 1050
2020-07-25 21:00 2.39 406 1060 (2015) 128 (2001) 299 128 137 145 160 226 298 373 773 1050
2020-07-25 20:00 2.40 410 1060 (2015) 128 (2001) 299 128 137 145 160 226 298 373 773 1050
2020-07-25 19:00 2.38 402 1060 (2015) 128 (2001) 299 128 137 145 160 226 298 373 773 1050
2020-07-25 18:00 2.41 414 1060 (2015) 128 (2001) 299 128 137 145 160 226 298 373 773 1050
2020-07-25 17:00 2.40 410 1060 (2015) 128 (2001) 299 128 137 145 160 226 298 373 773 1050
2020-07-25 16:00 2.41 414 1060 (2015) 128 (2001) 299 128 137 145 160 226 298 373 773 1050
2020-07-25 15:00 2.42 417 1060 (2015) 128 (2001) 299 128 137 145 160 226 298 373 773 1050
2020-07-25 14:00 2.41 414 1060 (2015) 128 (2001) 299 128 137 145 160 226 298 373 773 1050
2020-07-25 13:00 2.41 414 1060 (2015) 128 (2001) 299 128 137 145 160 226 298 373 773 1050
2020-07-25 12:00 2.43 421 1060 (2015) 128 (2001) 299 128 137 145 160 226 298 373 773 1050
2020-07-25 11:00 2.40 410 1060 (2015) 128 (2001) 299 128 137 145 160 226 298 373 773 1050
2020-07-25 10:00 2.41 414 1060 (2015) 128 (2001) 299 128 137 145 160 226 298 373 773 1050
2020-07-25 09:00 2.42 417 1060 (2015) 128 (2001) 299 128 137 145 160 226 298 373 773 1050
2020-07-25 08:00 2.41 414 1060 (2015) 128 (2001) 299 128 137 145 160 226 298 373 773 1050
2020-07-25 07:00 2.41 414 1060 (2015) 128 (2001) 299 128 137 145 160 226 298 373 773 1050
2020-07-25 06:00 2.43 421 1060 (2015) 128 (2001) 299 128 137 145 160 226 298 373 773 1050
2020-07-25 05:00 2.41 414 1060 (2015) 128 (2001) 299 128 137 145 160 226 298 373 773 1050
2020-07-25 04:00 2.44 425 1060 (2015) 128 (2001) 299 128 137 145 160 226 298 373 773 1050
2020-07-25 03:00 2.43 421 1060 (2015) 128 (2001) 299 128 137 145 160 226 298 373 773 1050
2020-07-25 02:00 2.44 425 1060 (2015) 128 (2001) 299 128 137 145 160 226 298 373 773 1050
2020-07-25 01:00 2.44 425 1060 (2015) 128 (2001) 299 128 137 145 160 226 298 373 773 1050
2020-07-25 00:00 2.46 433 1060 (2015) 128 (2001) 299 128 137 145 160 226 298 373 773 1050
2020-07-24 23:00 2.46 433 1020 (2015) 130 (2001) 273 130 138 154 165 228 277 285 575 999
2020-07-24 22:00 2.46 433 1020 (2015) 130 (2001) 273 130 138 154 165 228 277 285 575 999
2020-07-24 21:00 2.46 433 1020 (2015) 130 (2001) 273 130 138 154 165 228 277 285 575 999
2020-07-24 20:00 2.47 437 1020 (2015) 130 (2001) 273 130 138 154 165 228 277 285 575 999
2020-07-24 19:00 2.45 429 1020 (2015) 130 (2001) 273 130 138 154 165 228 277 285 575 999
2020-07-24 18:00 2.47 437 1020 (2015) 130 (2001) 273 130 138 154 165 228 277 285 575 999
2020-07-24 17:00 2.47 437 1020 (2015) 130 (2001) 273 130 138 154 165 228 277 285 575 999
2020-07-24 16:00 2.48 440 1020 (2015) 130 (2001) 273 130 138 154 165 228 277 285 575 999
2020-07-24 15:00 2.50 448 1020 (2015) 130 (2001) 273 130 138 154 165 228 277 285 575 999
2020-07-24 14:00 2.51 452 1020 (2015) 130 (2001) 273 130 138 154 165 228 277 285 575 999
2020-07-24 13:00 2.51 452 1020 (2015) 130 (2001) 273 130 138 154 165 228 277 285 575 999
2020-07-24 12:00 2.50 448 1020 (2015) 130 (2001) 273 130 138 154 165 228 277 285 575 999
2020-07-24 11:00 2.52 456 1020 (2015) 130 (2001) 273 130 138 154 165 228 277 285 575 999
2020-07-24 10:00 2.55 467 1020 (2015) 130 (2001) 273 130 138 154 165 228 277 285 575 999
2020-07-24 09:00 2.55 467 1020 (2015) 130 (2001) 273 130 138 154 165 228 277 285 575 999
2020-07-24 08:00 2.55 467 1020 (2015) 130 (2001) 273 130 138 154 165 228 277 285 575 999
2020-07-24 07:00 2.53 460 1020 (2015) 130 (2001) 273 130 138 154 165 228 277 285 575 999
2020-07-24 06:00 2.52 456 1020 (2015) 130 (2001) 273 130 138 154 165 228 277 285 575 999
2020-07-24 05:00 2.49 444 1020 (2015) 130 (2001) 273 130 138 154 165 228 277 285 575 999
2020-07-24 04:00 2.49 444 1020 (2015) 130 (2001) 273 130 138 154 165 228 277 285 575 999
2020-07-24 03:00 2.49 444 1020 (2015) 130 (2001) 273 130 138 154 165 228 277 285 575 999
2020-07-24 02:00 2.47 437 1020 (2015) 130 (2001) 273 130 138 154 165 228 277 285 575 999
2020-07-24 01:00 2.47 437 1020 (2015) 130 (2001) 273 130 138 154 165 228 277 285 575 999
2020-07-24 00:00 2.50 448 1020 (2015) 130 (2001) 273 130 138 154 165 228 277 285 575 999
2020-07-23 23:00 2.52 456 992 (2015) 138 (2012) 292 138 141 156 171 227 275 315 870 989
2020-07-23 22:00 2.51 452 992 (2015) 138 (2012) 292 138 141 156 171 227 275 315 870 989
2020-07-23 21:00 2.52 456 992 (2015) 138 (2012) 292 138 141 156 171 227 275 315 870 989
2020-07-23 20:00 2.51 452 992 (2015) 138 (2012) 292 138 141 156 171 227 275 315 870 989
2020-07-23 19:00 2.52 456 992 (2015) 138 (2012) 292 138 141 156 171 227 275 315 870 989
2020-07-23 18:00 2.52 456 992 (2015) 138 (2012) 292 138 141 156 171 227 275 315 870 989
2020-07-23 17:00 2.54 463 992 (2015) 138 (2012) 292 138 141 156 171 227 275 315 870 989
2020-07-23 16:00 2.54 463 992 (2015) 138 (2012) 292 138 141 156 171 227 275 315 870 989
2020-07-23 15:00 2.53 460 992 (2015) 138 (2012) 292 138 141 156 171 227 275 315 870 989
2020-07-23 14:00 2.52 456 992 (2015) 138 (2012) 292 138 141 156 171 227 275 315 870 989
2020-07-23 13:00 2.51 452 992 (2015) 138 (2012) 292 138 141 156 171 227 275 315 870 989
2020-07-23 12:00 2.50 448 992 (2015) 138 (2012) 292 138 141 156 171 227 275 315 870 989
2020-07-23 11:00 2.51 452 992 (2015) 138 (2012) 292 138 141 156 171 227 275 315 870 989
2020-07-23 10:00 2.48 440 992 (2015) 138 (2012) 292 138 141 156 171 227 275 315 870 989
2020-07-23 09:00 2.46 433 992 (2015) 138 (2012) 292 138 141 156 171 227 275 315 870 989
2020-07-23 08:00 2.47 437 992 (2015) 138 (2012) 292 138 141 156 171 227 275 315 870 989
2020-07-23 07:00 2.45 429 992 (2015) 138 (2012) 292 138 141 156 171 227 275 315 870 989
2020-07-23 06:00 2.43 421 992 (2015) 138 (2012) 292 138 141 156 171 227 275 315 870 989
2020-07-23 05:00 2.43 421 992 (2015) 138 (2012) 292 138 141 156 171 227 275 315 870 989
2020-07-23 04:00 2.41 414 992 (2015) 138 (2012) 292 138 141 156 171 227 275 315 870 989
2020-07-23 03:00 2.43 421 992 (2015) 138 (2012) 292 138 141 156 171 227 275 315 870 989
2020-07-23 02:00 2.41 414 992 (2015) 138 (2012) 292 138 141 156 171 227 275 315 870 989
2020-07-23 01:00 2.41 414 992 (2015) 138 (2012) 292 138 141 156 171 227 275 315 870 989
2020-07-23 00:00 2.42 417 992 (2015) 138 (2012) 292 138 141 156 171 227 275 315 870 989
2020-07-22 23:00 2.41 414 858 (2019) 131 (2000) 281 131 133 166 176 232 286 304 711 852
2020-07-22 22:00 2.43 421 858 (2019) 131 (2000) 281 131 133 166 176 232 286 304 711 852
2020-07-22 21:00 2.42 417 858 (2019) 131 (2000) 281 131 133 166 176 232 286 304 711 852
2020-07-22 20:00 2.44 425 858 (2019) 131 (2000) 281 131 133 166 176 232 286 304 711 852
2020-07-22 19:00 2.44 425 858 (2019) 131 (2000) 281 131 133 166 176 232 286 304 711 852
2020-07-22 18:00 2.43 421 858 (2019) 131 (2000) 281 131 133 166 176 232 286 304 711 852
2020-07-22 17:00 2.45 429 858 (2019) 131 (2000) 281 131 133 166 176 232 286 304 711 852
2020-07-22 16:00 2.42 417 858 (2019) 131 (2000) 281 131 133 166 176 232 286 304 711 852
2020-07-22 15:00 2.43 421 858 (2019) 131 (2000) 281 131 133 166 176 232 286 304 711 852
2020-07-22 14:00 2.43 421 858 (2019) 131 (2000) 281 131 133 166 176 232 286 304 711 852
2020-07-22 13:00 2.44 425 858 (2019) 131 (2000) 281 131 133 166 176 232 286 304 711 852
2020-07-22 12:00 2.43 421 858 (2019) 131 (2000) 281 131 133 166 176 232 286 304 711 852
2020-07-22 11:00 2.44 425 858 (2019) 131 (2000) 281 131 133 166 176 232 286 304 711 852
2020-07-22 10:00 2.45 429 858 (2019) 131 (2000) 281 131 133 166 176 232 286 304 711 852
2020-07-22 09:00 2.44 425 858 (2019) 131 (2000) 281 131 133 166 176 232 286 304 711 852
2020-07-22 08:00 2.46 433 858 (2019) 131 (2000) 281 131 133 166 176 232 286 304 711 852
2020-07-22 07:00 2.47 437 858 (2019) 131 (2000) 281 131 133 166 176 232 286 304 711 852
2020-07-22 06:00 2.44 425 858 (2019) 131 (2000) 281 131 133 166 176 232 286 304 711 852
2020-07-22 05:00 2.46 433 858 (2019) 131 (2000) 281 131 133 166 176 232 286 304 711 852
2020-07-22 04:00 2.44 425 858 (2019) 131 (2000) 281 131 133 166 176 232 286 304 711 852
2020-07-22 03:00 2.43 421 858 (2019) 131 (2000) 281 131 133 166 176 232 286 304 711 852
2020-07-22 02:00 2.44 425 858 (2019) 131 (2000) 281 131 133 166 176 232 286 304 711 852
2020-07-22 01:00 2.44 425 858 (2019) 131 (2000) 281 131 133 166 176 232 286 304 711 852
2020-07-22 00:00 2.43 421 858 (2019) 131 (2000) 281 131 133 166 176 232 286 304 711 852
2020-07-21 23:00 2.47 437 936 (2015) 136 (2000) 276 136 137 166 184 248 265 290 565 919
2020-07-21 22:00 2.47 437 936 (2015) 136 (2000) 276 136 137 166 184 248 265 290 565 919
2020-07-21 21:00 2.48 440 936 (2015) 136 (2000) 276 136 137 166 184 248 265 290 565 919
2020-07-21 20:00 2.46 433 936 (2015) 136 (2000) 276 136 137 166 184 248 265 290 565 919
2020-07-21 19:00 2.44 425 936 (2015) 136 (2000) 276 136 137 166 184 248 265 290 565 919
2020-07-21 18:00 2.44 425 936 (2015) 136 (2000) 276 136 137 166 184 248 265 290 565 919
2020-07-21 17:00 2.44 425 936 (2015) 136 (2000) 276 136 137 166 184 248 265 290 565 919
2020-07-21 16:00 2.43 421 936 (2015) 136 (2000) 276 136 137 166 184 248 265 290 565 919
2020-07-21 15:00 2.44 425 936 (2015) 136 (2000) 276 136 137 166 184 248 265 290 565 919
2020-07-21 14:00 2.43 421 936 (2015) 136 (2000) 276 136 137 166 184 248 265 290 565 919
2020-07-21 13:00 2.45 429 936 (2015) 136 (2000) 276 136 137 166 184 248 265 290 565 919
2020-07-21 12:00 2.47 437 936 (2015) 136 (2000) 276 136 137 166 184 248 265 290 565 919
2020-07-21 11:00 2.47 437 936 (2015) 136 (2000) 276 136 137 166 184 248 265 290 565 919
2020-07-21 10:00 2.46 433 936 (2015) 136 (2000) 276 136 137 166 184 248 265 290 565 919
2020-07-21 09:00 2.43 421 936 (2015) 136 (2000) 276 136 137 166 184 248 265 290 565 919
2020-07-21 08:00 2.42 417 936 (2015) 136 (2000) 276 136 137 166 184 248 265 290 565 919
2020-07-21 07:00 2.44 425 936 (2015) 136 (2000) 276 136 137 166 184 248 265 290 565 919
2020-07-21 06:00 2.43 421 936 (2015) 136 (2000) 276 136 137 166 184 248 265 290 565 919
2020-07-21 05:00 2.45 429 936 (2015) 136 (2000) 276 136 137 166 184 248 265 290 565 919
2020-07-21 04:00 2.41 414 936 (2015) 136 (2000) 276 136 137 166 184 248 265 290 565 919
2020-07-21 03:00 2.44 425 936 (2015) 136 (2000) 276 136 137 166 184 248 265 290 565 919
2020-07-21 02:00 2.44 425 936 (2015) 136 (2000) 276 136 137 166 184 248 265 290 565 919
2020-07-21 01:00 2.44 425 936 (2015) 136 (2000) 276 136 137 166 184 248 265 290 565 919
2020-07-21 00:00 2.42 417 936 (2015) 136 (2000) 276 136 137 166 184 248 265 290 565 919
2020-07-20 23:00 2.44 425 882 (2015) 136 (2000) 256 136 137 153 179 232 268 279 341 855
2020-07-20 22:00 2.44 425 882 (2015) 136 (2000) 256 136 137 153 179 232 268 279 341 855
2020-07-20 21:00 2.44 425 882 (2015) 136 (2000) 256 136 137 153 179 232 268 279 341 855
2020-07-20 20:00 2.44 425 882 (2015) 136 (2000) 256 136 137 153 179 232 268 279 341 855
2020-07-20 19:00 2.45 429 882 (2015) 136 (2000) 256 136 137 153 179 232 268 279 341 855
2020-07-20 18:00 2.47 437 882 (2015) 136 (2000) 256 136 137 153 179 232 268 279 341 855
2020-07-20 17:00 2.46 433 882 (2015) 136 (2000) 256 136 137 153 179 232 268 279 341 855
2020-07-20 16:00 2.48 440 882 (2015) 136 (2000) 256 136 137 153 179 232 268 279 341 855
2020-07-20 15:00 2.49 444 882 (2015) 136 (2000) 256 136 137 153 179 232 268 279 341 855
2020-07-20 14:00 2.46 433 882 (2015) 136 (2000) 256 136 137 153 179 232 268 279 341 855
2020-07-20 13:00 2.47 437 882 (2015) 136 (2000) 256 136 137 153 179 232 268 279 341 855
2020-07-20 12:00 2.48 440 882 (2015) 136 (2000) 256 136 137 153 179 232 268 279 341 855
2020-07-20 11:00 2.51 452 882 (2015) 136 (2000) 256 136 137 153 179 232 268 279 341 855
2020-07-20 10:00 2.48 440 882 (2015) 136 (2000) 256 136 137 153 179 232 268 279 341 855
2020-07-20 09:00 2.50 448 882 (2015) 136 (2000) 256 136 137 153 179 232 268 279 341 855
2020-07-20 08:00 2.46 433 882 (2015) 136 (2000) 256 136 137 153 179 232 268 279 341 855
2020-07-20 07:00 2.49 444 882 (2015) 136 (2000) 256 136 137 153 179 232 268 279 341 855
2020-07-20 06:00 2.43 421 882 (2015) 136 (2000) 256 136 137 153 179 232 268 279 341 855
2020-07-20 05:00 2.41 414 882 (2015) 136 (2000) 256 136 137 153 179 232 268 279 341 855
2020-07-20 04:00 2.39 406 882 (2015) 136 (2000) 256 136 137 153 179 232 268 279 341 855
2020-07-20 03:00 2.40 410 882 (2015) 136 (2000) 256 136 137 153 179 232 268 279 341 855
2020-07-20 02:00 2.40 410 882 (2015) 136 (2000) 256 136 137 153 179 232 268 279 341 855
2020-07-20 01:00 2.39 406 882 (2015) 136 (2000) 256 136 137 153 179 232 268 279 341 855
2020-07-20 00:00 2.41 414 882 (2015) 136 (2000) 256 136 137 153 179 232 268 279 341 855
2020-07-19 23:00 2.38 402 835 (2015) 129 (2000) 255 129 135 157 176 230 275 281 356 811
2020-07-19 22:00 2.39 406 835 (2015) 129 (2000) 255 129 135 157 176 230 275 281 356 811
2020-07-19 21:00 2.38 402 835 (2015) 129 (2000) 255 129 135 157 176 230 275 281 356 811
2020-07-19 20:00 2.38 402 835 (2015) 129 (2000) 255 129 135 157 176 230 275 281 356 811
2020-07-19 19:00 2.38 402 835 (2015) 129 (2000) 255 129 135 157 176 230 275 281 356 811
2020-07-19 18:00 2.39 406 835 (2015) 129 (2000) 255 129 135 157 176 230 275 281 356 811
2020-07-19 17:00 2.38 402 835 (2015) 129 (2000) 255 129 135 157 176 230 275 281 356 811
2020-07-19 16:00 2.38 402 835 (2015) 129 (2000) 255 129 135 157 176 230 275 281 356 811
2020-07-19 15:00 2.39 406 835 (2015) 129 (2000) 255 129 135 157 176 230 275 281 356 811
2020-07-19 14:00 2.38 402 835 (2015) 129 (2000) 255 129 135 157 176 230 275 281 356 811
2020-07-19 13:00 2.38 402 835 (2015) 129 (2000) 255 129 135 157 176 230 275 281 356 811
2020-07-19 12:00 2.39 406 835 (2015) 129 (2000) 255 129 135 157 176 230 275 281 356 811
2020-07-19 11:00 2.39 406 835 (2015) 129 (2000) 255 129 135 157 176 230 275 281 356 811
2020-07-19 10:00 2.39 406 835 (2015) 129 (2000) 255 129 135 157 176 230 275 281 356 811
2020-07-19 09:00 2.37 399 835 (2015) 129 (2000) 255 129 135 157 176 230 275 281 356 811
2020-07-19 08:00 2.38 402 835 (2015) 129 (2000) 255 129 135 157 176 230 275 281 356 811
2020-07-19 07:00 2.38 402 835 (2015) 129 (2000) 255 129 135 157 176 230 275 281 356 811
2020-07-19 06:00 2.39 406 835 (2015) 129 (2000) 255 129 135 157 176 230 275 281 356 811
2020-07-19 05:00 2.39 406 835 (2015) 129 (2000) 255 129 135 157 176 230 275 281 356 811
2020-07-19 04:00 2.37 399 835 (2015) 129 (2000) 255 129 135 157 176 230 275 281 356 811
2020-07-19 03:00 2.39 406 835 (2015) 129 (2000) 255 129 135 157 176 230 275 281 356 811
2020-07-19 02:00 2.38 402 835 (2015) 129 (2000) 255 129 135 157 176 230 275 281 356 811
2020-07-19 01:00 2.38 402 835 (2015) 129 (2000) 255 129 135 157 176 230 275 281 356 811
2020-07-19 00:00 2.38 402 835 (2015) 129 (2000) 255 129 135 157 176 230 275 281 356 811
2020-07-18 23:00 2.38 402 954 (2015) 135 (2000) 265 135 139 150 160 234 282 290 368 925
2020-07-18 22:00 2.38 402 954 (2015) 135 (2000) 265 135 139 150 160 234 282 290 368 925
2020-07-18 21:00 2.36 395 954 (2015) 135 (2000) 265 135 139 150 160 234 282 290 368 925
2020-07-18 20:00 2.38 402 954 (2015) 135 (2000) 265 135 139 150 160 234 282 290 368 925
2020-07-18 19:00 2.38 402 954 (2015) 135 (2000) 265 135 139 150 160 234 282 290 368 925
2020-07-18 18:00 2.39 406 954 (2015) 135 (2000) 265 135 139 150 160 234 282 290 368 925
2020-07-18 17:00 2.40 410 954 (2015) 135 (2000) 265 135 139 150 160 234 282 290 368 925
2020-07-18 16:00 2.38 402 954 (2015) 135 (2000) 265 135 139 150 160 234 282 290 368 925
2020-07-18 15:00 2.39 406 954 (2015) 135 (2000) 265 135 139 150 160 234 282 290 368 925
2020-07-18 14:00 2.38 402 954 (2015) 135 (2000) 265 135 139 150 160 234 282 290 368 925
2020-07-18 13:00 2.39 406 954 (2015) 135 (2000) 265 135 139 150 160 234 282 290 368 925
2020-07-18 12:00 2.41 414 954 (2015) 135 (2000) 265 135 139 150 160 234 282 290 368 925
2020-07-18 11:00 2.40 410 954 (2015) 135 (2000) 265 135 139 150 160 234 282 290 368 925
2020-07-18 10:00 2.41 414 954 (2015) 135 (2000) 265 135 139 150 160 234 282 290 368 925
2020-07-18 09:00 2.41 414 954 (2015) 135 (2000) 265 135 139 150 160 234 282 290 368 925
2020-07-18 08:00 2.41 414 954 (2015) 135 (2000) 265 135 139 150 160 234 282 290 368 925
2020-07-18 07:00 2.40 410 954 (2015) 135 (2000) 265 135 139 150 160 234 282 290 368 925
2020-07-18 06:00 2.40 410 954 (2015) 135 (2000) 265 135 139 150 160 234 282 290 368 925
2020-07-18 05:00 2.41 414 954 (2015) 135 (2000) 265 135 139 150 160 234 282 290 368 925
2020-07-18 04:00 2.40 410 954 (2015) 135 (2000) 265 135 139 150 160 234 282 290 368 925
2020-07-18 03:00 2.41 414 954 (2015) 135 (2000) 265 135 139 150 160 234 282 290 368 925
2020-07-18 02:00 2.39 406 954 (2015) 135 (2000) 265 135 139 150 160 234 282 290 368 925
2020-07-18 01:00 2.40 410 954 (2015) 135 (2000) 265 135 139 150 160 234 282 290 368 925
2020-07-18 00:00 2.40 410 954 (2015) 135 (2000) 265 135 139 150 160 234 282 290 368 925
2020-07-17 23:00 2.38 402 1110 (2015) 140 (2000) 280 140 141 150 161 234 296 310 374 1070
2020-07-17 22:00 2.40 410 1110 (2015) 140 (2000) 280 140 141 150 161 234 296 310 374 1070
2020-07-17 21:00 2.41 414 1110 (2015) 140 (2000) 280 140 141 150 161 234 296 310 374 1070
2020-07-17 20:00 2.38 402 1110 (2015) 140 (2000) 280 140 141 150 161 234 296 310 374 1070
2020-07-17 19:00 2.40 410 1110 (2015) 140 (2000) 280 140 141 150 161 234 296 310 374 1070
2020-07-17 18:00 2.41 414 1110 (2015) 140 (2000) 280 140 141 150 161 234 296 310 374 1070
2020-07-17 17:00 2.40 410 1110 (2015) 140 (2000) 280 140 141 150 161 234 296 310 374 1070
2020-07-17 16:00 2.41 414 1110 (2015) 140 (2000) 280 140 141 150 161 234 296 310 374 1070
2020-07-17 15:00 2.42 417 1110 (2015) 140 (2000) 280 140 141 150 161 234 296 310 374 1070
2020-07-17 14:00 2.42 417 1110 (2015) 140 (2000) 280 140 141 150 161 234 296 310 374 1070
2020-07-17 13:00 2.41 414 1110 (2015) 140 (2000) 280 140 141 150 161 234 296 310 374 1070
2020-07-17 12:00 2.41 414 1110 (2015) 140 (2000) 280 140 141 150 161 234 296 310 374 1070
2020-07-17 11:00 2.41 414 1110 (2015) 140 (2000) 280 140 141 150 161 234 296 310 374 1070
2020-07-17 10:00 2.40 410 1110 (2015) 140 (2000) 280 140 141 150 161 234 296 310 374 1070
2020-07-17 09:00 2.42 417 1110 (2015) 140 (2000) 280 140 141 150 161 234 296 310 374 1070
2020-07-17 08:00 2.42 417 1110 (2015) 140 (2000) 280 140 141 150 161 234 296 310 374 1070
2020-07-17 07:00 2.39 406 1110 (2015) 140 (2000) 280 140 141 150 161 234 296 310 374 1070
2020-07-17 06:00 2.41 414 1110 (2015) 140 (2000) 280 140 141 150 161 234 296 310 374 1070
2020-07-17 05:00 2.41 414 1110 (2015) 140 (2000) 280 140 141 150 161 234 296 310 374 1070
2020-07-17 04:00 2.42 417 1110 (2015) 140 (2000) 280 140 141 150 161 234 296 310 374 1070
2020-07-17 03:00 2.40 410 1110 (2015) 140 (2000) 280 140 141 150 161 234 296 310 374 1070
2020-07-17 02:00 2.41 414 1110 (2015) 140 (2000) 280 140 141 150 161 234 296 310 374 1070
2020-07-17 01:00 2.41 414 1110 (2015) 140 (2000) 280 140 141 150 161 234 296 310 374 1070
2020-07-17 00:00 2.42 417 1110 (2015) 140 (2000) 280 140 141 150 161 234 296 310 374 1070
2020-07-16 23:00 2.42 417 1330 (2015) 136 (2000) 294 137 147 155 163 230 301 354 371 1280
2020-07-16 22:00 2.42 417 1330 (2015) 136 (2000) 294 137 147 155 163 230 301 354 371 1280
2020-07-16 21:00 2.41 414 1330 (2015) 136 (2000) 294 137 147 155 163 230 301 354 371 1280
2020-07-16 20:00 2.41 414 1330 (2015) 136 (2000) 294 137 147 155 163 230 301 354 371 1280
2020-07-16 19:00 2.43 421 1330 (2015) 136 (2000) 294 137 147 155 163 230 301 354 371 1280
2020-07-16 18:00 2.44 425 1330 (2015) 136 (2000) 294 137 147 155 163 230 301 354 371 1280
2020-07-16 17:00 2.45 429 1330 (2015) 136 (2000) 294 137 147 155 163 230 301 354 371 1280
2020-07-16 16:00 2.43 421 1330 (2015) 136 (2000) 294 137 147 155 163 230 301 354 371 1280
2020-07-16 15:00 2.41 414 1330 (2015) 136 (2000) 294 137 147 155 163 230 301 354 371 1280
2020-07-16 14:00 2.43 421 1330 (2015) 136 (2000) 294 137 147 155 163 230 301 354 371 1280
2020-07-16 13:00 2.42 417 1330 (2015) 136 (2000) 294 137 147 155 163 230 301 354 371 1280
2020-07-16 12:00 2.43 421 1330 (2015) 136 (2000) 294 137 147 155 163 230 301 354 371 1280
2020-07-16 11:00 2.44 425 1330 (2015) 136 (2000) 294 137 147 155 163 230 301 354 371 1280
2020-07-16 10:00 2.42 417 1330 (2015) 136 (2000) 294 137 147 155 163 230 301 354 371 1280
2020-07-16 09:00 2.41 414 1330 (2015) 136 (2000) 294 137 147 155 163 230 301 354 371 1280
2020-07-16 08:00 2.43 421 1330 (2015) 136 (2000) 294 137 147 155 163 230 301 354 371 1280
2020-07-16 07:00 2.42 417 1330 (2015) 136 (2000) 294 137 147 155 163 230 301 354 371 1280
2020-07-16 06:00 2.43 421 1330 (2015) 136 (2000) 294 137 147 155 163 230 301 354 371 1280
2020-07-16 05:00 2.43 421 1330 (2015) 136 (2000) 294 137 147 155 163 230 301 354 371 1280
2020-07-16 04:00 2.41 414 1330 (2015) 136 (2000) 294 137 147 155 163 230 301 354 371 1280
2020-07-16 03:00 2.43 421 1330 (2015) 136 (2000) 294 137 147 155 163 230 301 354 371 1280
2020-07-16 02:00 2.43 421 1330 (2015) 136 (2000) 294 137 147 155 163 230 301 354 371 1280
2020-07-16 01:00 2.43 421 1330 (2015) 136 (2000) 294 137 147 155 163 230 301 354 371 1280
2020-07-16 00:00 2.42 417 1330 (2015) 136 (2000) 294 137 147 155 163 230 301 354 371 1280
2020-07-15 23:00 2.42 417 1620 (2015) 140 (2000) 318 141 154 160 167 246 301 355 456 1560
2020-07-15 22:00 2.44 425 1620 (2015) 140 (2000) 318 141 154 160 167 246 301 355 456 1560
2020-07-15 21:00 2.44 425 1620 (2015) 140 (2000) 318 141 154 160 167 246 301 355 456 1560
2020-07-15 20:00 2.45 429 1620 (2015) 140 (2000) 318 141 154 160 167 246 301 355 456 1560
2020-07-15 19:00 2.44 425 1620 (2015) 140 (2000) 318 141 154 160 167 246 301 355 456 1560
2020-07-15 18:00 2.45 429 1620 (2015) 140 (2000) 318 141 154 160 167 246 301 355 456 1560
2020-07-15 17:00 2.45 429 1620 (2015) 140 (2000) 318 141 154 160 167 246 301 355 456 1560
2020-07-15 16:00 2.42 417 1620 (2015) 140 (2000) 318 141 154 160 167 246 301 355 456 1560
2020-07-15 15:00 2.43 421 1620 (2015) 140 (2000) 318 141 154 160 167 246 301 355 456 1560
2020-07-15 14:00 2.43 421 1620 (2015) 140 (2000) 318 141 154 160 167 246 301 355 456 1560
2020-07-15 13:00 2.43 421 1620 (2015) 140 (2000) 318 141 154 160 167 246 301 355 456 1560
2020-07-15 12:00 2.44 425 1620 (2015) 140 (2000) 318 141 154 160 167 246 301 355 456 1560
2020-07-15 11:00 2.46 433 1620 (2015) 140 (2000) 318 141 154 160 167 246 301 355 456 1560
2020-07-15 10:00 2.44 425 1620 (2015) 140 (2000) 318 141 154 160 167 246 301 355 456 1560
2020-07-15 09:00 2.46 433 1620 (2015) 140 (2000) 318 141 154 160 167 246 301 355 456 1560
2020-07-15 08:00 2.45 429 1620 (2015) 140 (2000) 318 141 154 160 167 246 301 355 456 1560
2020-07-15 07:00 2.44 425 1620 (2015) 140 (2000) 318 141 154 160 167 246 301 355 456 1560
2020-07-15 06:00 2.44 425 1620 (2015) 140 (2000) 318 141 154 160 167 246 301 355 456 1560
2020-07-15 05:00 2.45 429 1620 (2015) 140 (2000) 318 141 154 160 167 246 301 355 456 1560
2020-07-15 04:00 2.45 429 1620 (2015) 140 (2000) 318 141 154 160 167 246 301 355 456 1560
2020-07-15 03:00 2.44 425 1620 (2015) 140 (2000) 318 141 154 160 167 246 301 355 456 1560
2020-07-15 02:00 2.45 429 1620 (2015) 140 (2000) 318 141 154 160 167 246 301 355 456 1560
2020-07-15 01:00 2.43 421 1620 (2015) 140 (2000) 318 141 154 160 167 246 301 355 456 1560
2020-07-15 00:00 2.46 433 1620 (2015) 140 (2000) 318 141 154 160 167 246 301 355 456 1560
2020-07-14 23:00 2.44 425 2100 (2015) 142 (2000) 355 143 156 159 168 255 315 365 603 2030
2020-07-14 22:00 2.44 425 2100 (2015) 142 (2000) 355 143 156 159 168 255 315 365 603 2030
2020-07-14 21:00 2.46 433 2100 (2015) 142 (2000) 355 143 156 159 168 255 315 365 603 2030
2020-07-14 20:00 2.45 429 2100 (2015) 142 (2000) 355 143 156 159 168 255 315 365 603 2030
2020-07-14 19:00 2.43 421 2100 (2015) 142 (2000) 355 143 156 159 168 255 315 365 603 2030
2020-07-14 18:00 2.45 429 2100 (2015) 142 (2000) 355 143 156 159 168 255 315 365 603 2030
2020-07-14 17:00 2.45 429 2100 (2015) 142 (2000) 355 143 156 159 168 255 315 365 603 2030
2020-07-14 16:00 2.44 425 2100 (2015) 142 (2000) 355 143 156 159 168 255 315 365 603 2030
2020-07-14 15:00 2.45 429 2100 (2015) 142 (2000) 355 143 156 159 168 255 315 365 603 2030
2020-07-14 14:00 2.46 433 2100 (2015) 142 (2000) 355 143 156 159 168 255 315 365 603 2030
2020-07-14 13:00 2.46 433 2100 (2015) 142 (2000) 355 143 156 159 168 255 315 365 603 2030
2020-07-14 12:00 2.43 421 2100 (2015) 142 (2000) 355 143 156 159 168 255 315 365 603 2030
2020-07-14 11:00 2.44 425 2100 (2015) 142 (2000) 355 143 156 159 168 255 315 365 603 2030
2020-07-14 10:00 2.47 437 2100 (2015) 142 (2000) 355 143 156 159 168 255 315 365 603 2030
2020-07-14 09:00 2.48 440 2100 (2015) 142 (2000) 355 143 156 159 168 255 315 365 603 2030
2020-07-14 08:00 2.47 437 2100 (2015) 142 (2000) 355 143 156 159 168 255 315 365 603 2030
2020-07-14 07:00 2.47 437 2100 (2015) 142 (2000) 355 143 156 159 168 255 315 365 603 2030
2020-07-14 06:00 2.47 437 2100 (2015) 142 (2000) 355 143 156 159 168 255 315 365 603 2030
2020-07-14 05:00 2.47 437 2100 (2015) 142 (2000) 355 143 156 159 168 255 315 365 603 2030
2020-07-14 04:00 2.47 437 2100 (2015) 142 (2000) 355 143 156 159 168 255 315 365 603 2030
2020-07-14 03:00 2.48 440 2100 (2015) 142 (2000) 355 143 156 159 168 255 315 365 603 2030
2020-07-14 02:00 2.49 444 2100 (2015) 142 (2000) 355 143 156 159 168 255 315 365 603 2030
2020-07-14 01:00 2.47 437 2100 (2015) 142 (2000) 355 143 156 159 168 255 315 365 603 2030
2020-07-14 00:00 2.45 429 2100 (2015) 142 (2000) 355 143 156 159 168 255 315 365 603 2030
2020-07-13 23:00 2.46 433 2810 (2015) 145 (2000) 418 146 157 163 172 226 331 387 1070 2730
2020-07-13 22:00 2.46 433 2810 (2015) 145 (2000) 418 146 157 163 172 226 331 387 1070 2730
2020-07-13 21:00 2.47 437 2810 (2015) 145 (2000) 418 146 157 163 172 226 331 387 1070 2730
2020-07-13 20:00 2.49 444 2810 (2015) 145 (2000) 418 146 157 163 172 226 331 387 1070 2730
2020-07-13 19:00 2.47 437 2810 (2015) 145 (2000) 418 146 157 163 172 226 331 387 1070 2730
2020-07-13 18:00 2.48 440 2810 (2015) 145 (2000) 418 146 157 163 172 226 331 387 1070 2730
2020-07-13 17:00 2.49 444 2810 (2015) 145 (2000) 418 146 157 163 172 226 331 387 1070 2730
2020-07-13 16:00 2.48 440 2810 (2015) 145 (2000) 418 146 157 163 172 226 331 387 1070 2730
2020-07-13 15:00 2.49 444 2810 (2015) 145 (2000) 418 146 157 163 172 226 331 387 1070 2730
2020-07-13 14:00 2.48 440 2810 (2015) 145 (2000) 418 146 157 163 172 226 331 387 1070 2730
2020-07-13 13:00 2.48 440 2810 (2015) 145 (2000) 418 146 157 163 172 226 331 387 1070 2730
2020-07-13 12:00 2.47 437 2810 (2015) 145 (2000) 418 146 157 163 172 226 331 387 1070 2730
2020-07-13 11:00 2.49 444 2810 (2015) 145 (2000) 418 146 157 163 172 226 331 387 1070 2730
2020-07-13 10:00 2.49 444 2810 (2015) 145 (2000) 418 146 157 163 172 226 331 387 1070 2730
2020-07-13 09:00 2.48 440 2810 (2015) 145 (2000) 418 146 157 163 172 226 331 387 1070 2730
2020-07-13 08:00 2.48 440 2810 (2015) 145 (2000) 418 146 157 163 172 226 331 387 1070 2730
2020-07-13 07:00 2.50 448 2810 (2015) 145 (2000) 418 146 157 163 172 226 331 387 1070 2730
2020-07-13 06:00 2.50 448 2810 (2015) 145 (2000) 418 146 157 163 172 226 331 387 1070 2730
2020-07-13 05:00 2.50 448 2810 (2015) 145 (2000) 418 146 157 163 172 226 331 387 1070 2730
2020-07-13 04:00 2.49 444 2810 (2015) 145 (2000) 418 146 157 163 172 226 331 387 1070 2730
2020-07-13 03:00 2.50 448 2810 (2015) 145 (2000) 418 146 157 163 172 226 331 387 1070 2730
2020-07-13 02:00 2.48 440 2810 (2015) 145 (2000) 418 146 157 163 172 226 331 387 1070 2730
2020-07-13 01:00 2.48 440 2810 (2015) 145 (2000) 418 146 157 163 172 226 331 387 1070 2730
2020-07-13 00:00 2.48 440 2810 (2015) 145 (2000) 418 146 157 163 172 226 331 387 1070 2730
2020-07-12 23:00 2.50 448 5290 (2015) 137 (2000) 585 138 159 164 174 233 343 382 1770 5120
2020-07-12 22:00 2.50 448 5290 (2015) 137 (2000) 585 138 159 164 174 233 343 382 1770 5120
2020-07-12 21:00 2.51 452 5290 (2015) 137 (2000) 585 138 159 164 174 233 343 382 1770 5120
2020-07-12 20:00 2.50 448 5290 (2015) 137 (2000) 585 138 159 164 174 233 343 382 1770 5120
2020-07-12 19:00 2.50 448 5290 (2015) 137 (2000) 585 138 159 164 174 233 343 382 1770 5120
2020-07-12 18:00 2.50 448 5290 (2015) 137 (2000) 585 138 159 164 174 233 343 382 1770 5120
2020-07-12 17:00 2.50 448 5290 (2015) 137 (2000) 585 138 159 164 174 233 343 382 1770 5120
2020-07-12 16:00 2.50 448 5290 (2015) 137 (2000) 585 138 159 164 174 233 343 382 1770 5120
2020-07-12 15:00 2.51 452 5290 (2015) 137 (2000) 585 138 159 164 174 233 343 382 1770 5120
2020-07-12 14:00 2.50 448 5290 (2015) 137 (2000) 585 138 159 164 174 233 343 382 1770 5120
2020-07-12 13:00 2.51 452 5290 (2015) 137 (2000) 585 138 159 164 174 233 343 382 1770 5120
2020-07-12 12:00 2.52 456 5290 (2015) 137 (2000) 585 138 159 164 174 233 343 382 1770 5120
2020-07-12 11:00 2.52 456 5290 (2015) 137 (2000) 585 138 159 164 174 233 343 382 1770 5120
2020-07-12 10:00 2.52 456 5290 (2015) 137 (2000) 585 138 159 164 174 233 343 382 1770 5120
2020-07-12 09:00 2.52 456 5290 (2015) 137 (2000) 585 138 159 164 174 233 343 382 1770 5120
2020-07-12 08:00 2.52 456 5290 (2015) 137 (2000) 585 138 159 164 174 233 343 382 1770 5120
2020-07-12 07:00 2.52 456 5290 (2015) 137 (2000) 585 138 159 164 174 233 343 382 1770 5120
2020-07-12 06:00 2.52 456 5290 (2015) 137 (2000) 585 138 159 164 174 233 343 382 1770 5120
2020-07-12 05:00 2.54 463 5290 (2015) 137 (2000) 585 138 159 164 174 233 343 382 1770 5120
2020-07-12 04:00 2.52 456 5290 (2015) 137 (2000) 585 138 159 164 174 233 343 382 1770 5120
2020-07-12 03:00 2.52 456 5290 (2015) 137 (2000) 585 138 159 164 174 233 343 382 1770 5120
2020-07-12 02:00 2.52 456 5290 (2015) 137 (2000) 585 138 159 164 174 233 343 382 1770 5120
2020-07-12 01:00 2.52 456 5290 (2015) 137 (2000) 585 138 159 164 174 233 343 382 1770 5120
2020-07-12 00:00 2.52 456 5290 (2015) 137 (2000) 585 138 159 164 174 233 343 382 1770 5120

A total of 740 rows are displayed for years 2000 through 2019.